Location: Newark
(49.9828°N, 3.1606°E)
Time: 20:26:01
(UTC+00:00)

Envisat - Pass Details

Date: 01 February 2020
Orbit: 764 x 766 km, 98.1° (Epoch: 25 February)

Event Time Altitude Azimuth Distance (km) Brightness Sun altitude
Rises 05:10:46 0° 27° (NNE) 3,244 6.6 -21.1°
Reaches altitude 10° 05:13:57 10° 48° (NE) 2,312 6.1 -20.6°
Maximum altitude 05:17:09 17° 88° (E) 1,888 6.0 -20.1°
Drops below altitude 10° 05:20:20 10° 127° (SE) 2,300 6.3 -19.6°
Sets 05:23:28 0° 148° (SSE) 3,220 6.8 -19.1°
